• în Republica Moldova
  • Lista ţărilor
  • Pe 7 zile
  • Temperatura apei
  • Hartă satelitară
  • Meteo pe hartă
  • Widget-uri
  • user-avatar
    Intrare

    Meteo pe oră la Sukromenka

    Astăzi, 25 Septembrie, Marţi

    Timp Temperatura Precipitaţii Vânt Presiune Umiditate
    00:00 +9°C° 0 mm 8 m/s 735 mmHg 85%
    01:00 +8°C° 0 mm 7 m/s 735 mmHg 84%
    02:00 +8°C° 0 mm 5 m/s 735 mmHg 84%
    03:00 +7°C° 0 mm 6 m/s 735 mmHg 84%
    04:00 +7°C° 0 mm 6 m/s 736 mmHg 84%
    05:00 +6°C° 0 mm 7 m/s 736 mmHg 84%
    06:00 +6°C° 0 mm 7 m/s 736 mmHg 83%
    07:00 +6°C° 0 mm 7 m/s 737 mmHg 82%
    08:00 +8°C° 0 mm 7 m/s 737 mmHg 81%
    09:00 +8°C° 0.1 mm 7 m/s 738 mmHg 79%
    10:00 +7°C° 0.1 mm 8 m/s 738 mmHg 76%
    11:00 +7°C° 0.1 mm 8 m/s 739 mmHg 74%
    12:00 +7°C° 0 mm 8 m/s 740 mmHg 72%
    13:00 +7°C° 0 mm 8 m/s 741 mmHg 71%
    14:00 +8°C° 0 mm 7 m/s 742 mmHg 69%
    15:00 +8°C° 0 mm 7 m/s 742 mmHg 70%
    16:00 +7°C° 0 mm 6 m/s 743 mmHg 71%
    17:00 +7°C° 0 mm 6 m/s 744 mmHg 72%
    18:00 +7°C° 0 mm 6 m/s 744 mmHg 72%
    19:00 +6°C° 0 mm 5 m/s 745 mmHg 72%
    20:00 +6°C° 0 mm 5 m/s 745 mmHg 73%
    21:00 +6°C° 0 mm 5 m/s 746 mmHg 74%
    22:00 +6°C° 0 mm 5 m/s 747 mmHg 75%
    23:00 +6°C° 0 mm 5 m/s 747 mmHg 76%

    Mâine, 26 Septembrie, Miercuri

    Timp Temperatura Precipitaţii Vânt Presiune Umiditate
    00:00 +5°C° 0 mm 4 m/s 748 mmHg 78%
    01:00 +5°C° 0 mm 4 m/s 748 mmHg 81%
    02:00 +4°C° 0 mm 4 m/s 749 mmHg 83%
    03:00 +3°C° 0 mm 4 m/s 749 mmHg 84%
    04:00 +3°C° 0 mm 4 m/s 750 mmHg 85%
    05:00 +3°C° 0 mm 4 m/s 750 mmHg 87%
    06:00 +3°C° 0 mm 4 m/s 751 mmHg 82%
    07:00 +4°C° 0 mm 4 m/s 752 mmHg 78%
    08:00 +5°C° 0 mm 5 m/s 752 mmHg 74%
    09:00 +6°C° 0 mm 5 m/s 752 mmHg 68%
    10:00 +7°C° 0 mm 4 m/s 753 mmHg 62%
    11:00 +8°C° 0 mm 4 m/s 753 mmHg 56%
    12:00 +10°C° 0 mm 4 m/s 753 mmHg 54%
    13:00 +10°C° 0 mm 4 m/s 753 mmHg 51%
    14:00 +9°C° 0 mm 5 m/s 752 mmHg 49%
    15:00 +8°C° 0 mm 4 m/s 752 mmHg 54%
    16:00 +9°C° 0 mm 3 m/s 752 mmHg 59%
    17:00 +8°C° 0 mm 3 m/s 752 mmHg 64%
    18:00 +8°C° 0 mm 3 m/s 752 mmHg 67%
    19:00 +6°C° 0 mm 4 m/s 752 mmHg 69%
    20:00 +6°C° 0 mm 5 m/s 752 mmHg 71%
    21:00 +6°C° 0 mm 5 m/s 751 mmHg 69%
    22:00 +5°C° 0 mm 6 m/s 750 mmHg 67%
    23:00 +5°C° 0 mm 6 m/s 750 mmHg 65%

    Poimâine, 27 Septembrie, Joi

    Timp Temperatura Precipitaţii Vânt Presiune Umiditate
    00:00 +5°C° 0.1 mm 7 m/s 749 mmHg 65%
    01:00 +5°C° 0.1 mm 8 m/s 748 mmHg 64%
    02:00 +5°C° 0.1 mm 8 m/s 747 mmHg 64%
    03:00 +5°C° 0.7 mm 9 m/s 746 mmHg 69%
    04:00 +5°C° 0.7 mm 10 m/s 745 mmHg 74%
    05:00 +3°C° 0.7 mm 11 m/s 743 mmHg 79%
    06:00 +4°C° 0.6 mm 11 m/s 743 mmHg 81%
    07:00 +5°C° 0.6 mm 10 m/s 742 mmHg 83%
    08:00 +5°C° 0.6 mm 10 m/s 741 mmHg 85%
    09:00 +6°C° 0.4 mm 10 m/s 741 mmHg 85%
    10:00 +6°C° 0.4 mm 9 m/s 741 mmHg 85%
    11:00 +7°C° 0.4 mm 9 m/s 740 mmHg 86%
    12:00 +7°C° 0.3 mm 9 m/s 740 mmHg 85%
    13:00 +9°C° 0.3 mm 8 m/s 740 mmHg 84%
    14:00 +9°C° 0.3 mm 8 m/s 740 mmHg 84%
    15:00 +9°C° 0.1 mm 7 m/s 741 mmHg 82%
    16:00 +9°C° 0.1 mm 6 m/s 741 mmHg 79%
    17:00 +9°C° 0.1 mm 5 m/s 741 mmHg 77%
    18:00 +8°C° 0 mm 5 m/s 742 mmHg 78%
    19:00 +7°C° 0 mm 5 m/s 743 mmHg 79%
    20:00 +7°C° 0 mm 4 m/s 743 mmHg 81%
    21:00 +6°C° 0 mm 5 m/s 743 mmHg 82%
    22:00 +6°C° 0 mm 5 m/s 744 mmHg 83%
    23:00 +6°C° 0 mm 5 m/s 744 mmHg 85%

    28 Septembrie, Vineri

    Timp Temperatura Precipitaţii Vânt Presiune Umiditate
    00:00 +6°C° 0 mm 5 m/s 744 mmHg 86%
    01:00 +5°C° 0 mm 5 m/s 744 mmHg 88%
    02:00 +5°C° 0 mm 4 m/s 745 mmHg 89%
    03:00 +5°C° 0 mm 4 m/s 745 mmHg 90%
    04:00 +4°C° 0 mm 4 m/s 745 mmHg 92%
    05:00 +4°C° 0 mm 4 m/s 745 mmHg 93%
    06:00 +5°C° 0 mm 5 m/s 744 mmHg 87%
    07:00 +7°C° 0 mm 6 m/s 744 mmHg 81%
    08:00 +8°C° 0 mm 6 m/s 744 mmHg 75%
    09:00 +9°C° 0 mm 7 m/s 743 mmHg 72%
    10:00 +11°C° 0 mm 9 m/s 742 mmHg 69%
    11:00 +13°C° 0 mm 10 m/s 741 mmHg 66%
    12:00 +13°C° 0 mm 10 m/s 741 mmHg 69%
    13:00 +13°C° 0 mm 10 m/s 740 mmHg 72%
    14:00 +13°C° 0 mm 10 m/s 739 mmHg 75%
    15:00 +13°C° 0.3 mm 10 m/s 739 mmHg 77%
    16:00 +13°C° 0.3 mm 9 m/s 738 mmHg 80%
    17:00 +13°C° 0.3 mm 9 m/s 738 mmHg 82%
    18:00 +12°C° 0.6 mm 9 m/s 739 mmHg 82%
    19:00 +11°C° 0.6 mm 8 m/s 739 mmHg 81%
    20:00 +11°C° 0.6 mm 8 m/s 740 mmHg 80%
    21:00 +9°C° 0 mm 7 m/s 741 mmHg 82%
    22:00 +7°C° 0 mm 6 m/s 742 mmHg 84%
    23:00 +5°C° 0 mm 4 m/s 744 mmHg 86%

    29 Septembrie, Sâmbătă

    Timp Temperatura Precipitaţii Vânt Presiune Umiditate
    00:00 +4°C° 0 mm 4 m/s 744 mmHg 88%
    01:00 +3°C° 0 mm 3 m/s 745 mmHg 90%
    02:00 +4°C° 0 mm 2 m/s 746 mmHg 92%
    03:00 +3°C° 0 mm 2 m/s 747 mmHg 92%
    04:00 +3°C° 0 mm 2 m/s 747 mmHg 93%
    05:00 +3°C° 0 mm 2 m/s 747 mmHg 93%
    06:00 +4°C° 0 mm 2 m/s 748 mmHg 87%
    07:00 +5°C° 0 mm 2 m/s 748 mmHg 82%
    08:00 +6°C° 0 mm 2 m/s 749 mmHg 76%
    09:00 +7°C° 0 mm 2 m/s 749 mmHg 69%
    10:00 +8°C° 0 mm 2 m/s 749 mmHg 62%
    11:00 +9°C° 0 mm 2 m/s 750 mmHg 55%
    12:00 +9°C° 0 mm 2 m/s 750 mmHg 55%
    13:00 +9°C° 0 mm 2 m/s 750 mmHg 55%
    14:00 +10°C° 0 mm 2 m/s 750 mmHg 55%
    15:00 +9°C° 0 mm 2 m/s 750 mmHg 59%
    16:00 +8°C° 0 mm 2 m/s 750 mmHg 64%
    17:00 +8°C° 0 mm 1 m/s 751 mmHg 69%
    18:00 +8°C° 0 mm 1 m/s 751 mmHg 71%
    19:00 +6°C° 0 mm 2 m/s 752 mmHg 74%
    20:00 +5°C° 0 mm 2 m/s 753 mmHg 76%
    21:00 +5°C° 0 mm 2 m/s 753 mmHg 77%
    22:00 +4°C° 0 mm 2 m/s 753 mmHg 79%
    23:00 +4°C° 0 mm 2 m/s 754 mmHg 80%

    30 Septembrie, Duminică

    Timp Temperatura Precipitaţii Vânt Presiune Umiditate
    00:00 +3°C° 0 mm 2 m/s 754 mmHg 79%
    01:00 +3°C° 0 mm 2 m/s 754 mmHg 78%
    02:00 +2°C° 0 mm 2 m/s 755 mmHg 77%
    03:00 +3°C° 0 mm 1 m/s 755 mmHg 76%
    04:00 +3°C° 0 mm 1 m/s 755 mmHg 75%
    05:00 +2°C° 0 mm 1 m/s 756 mmHg 74%
    06:00 +3°C° 0 mm 1 m/s 756 mmHg 69%
    07:00 +5°C° 0 mm 1 m/s 756 mmHg 64%
    08:00 +5°C° 0 mm 0 m/s 756 mmHg 59%
    09:00 +7°C° 0 mm 1 m/s 756 mmHg 57%
    10:00 +7°C° 0 mm 2 m/s 756 mmHg 54%
    11:00 +8°C° 0 mm 2 m/s 756 mmHg 51%
    12:00 +9°C° 0 mm 2 m/s 756 mmHg 50%
    13:00 +9°C° 0 mm 3 m/s 756 mmHg 48%
    14:00 +10°C° 0 mm 3 m/s 755 mmHg 47%
    15:00 +9°C° 0 mm 3 m/s 755 mmHg 51%
    16:00 +8°C° 0 mm 2 m/s 755 mmHg 56%
    17:00 +7°C° 0 mm 2 m/s 755 mmHg 61%
    18:00 +6°C° 0 mm 2 m/s 755 mmHg 62%
    19:00 +5°C° 0 mm 2 m/s 755 mmHg 63%
    20:00 +5°C° 0 mm 2 m/s 755 mmHg 64%
    21:00 +4°C° 0 mm 2 m/s 755 mmHg 65%
    22:00 +4°C° 0 mm 2 m/s 755 mmHg 66%
    23:00 +4°C° 0 mm 2 m/s 755 mmHg 67%
    Arată mai mult